Погода в Кислокане

Поиск расширенной информации на нашем сайте:

Полезная информация:

Новости сайта



02.01.2020
Опубликован Долгосрочный прогноз погоды по городам России и ближнего зарубежья на январь 2020 года.
Карты: Прогноз на январь и февраль 2020 года, Сравнение прогнозируемой аномалии приземной температуры воздуха на январь 2020 года по разным моделям.




Погода в Кислокане - сегодня

Время (UTC), дата Ветер
(°,м/с) 
Видим.   Явления Облачность Т
(°С)
Тd
(°С)
f(%) Тe
(°С)
Pmin
(гПа)
dP
(гПа)
Po
(мм)
O2
(г/м3)
Тmin Tmax R s Состояние
почвы
21 29.11.20 тихо ()   н/о    1/0 верхняя 
[Ci sp]
-34.5 -36.8 79 -35  1033.9  -0.9  752  349           
00 30.11.20 тихо ()   н/о    1/0 верхняя 
[Ci sp]
-34.5 -36.8 79 -35  1033.2  -0.7  752  349  -34.7      46  равномерный
сухой снег
100% 
03 30.11.20 тихо ()   20000 м    3/3 2000 м средняя, верхняя 
[Ac trans|Ci fib]
-34.6 -36.8 80 -35  1032.6  -0.4  752  349  -35         
06 30.11.20 тихо ()   20000 м    8/3 2000 м средняя, верхняя 
[Ac lent|Ci sp]
-29.2 -32.2 75 -29  1030.9  -1  751  341           
09 30.11.20 тихо ()   н/о    10/5 2000 м средняя, верхняя 
[Ac trans|Ci fib]
-31.5 -33.9 79 -32  1030.4  -0.8  750  344           
12 30.11.20 тихо ()   н/о    10/3 2000 м средняя, верхняя 
[Ac trans|Cs]
-29.7 -32.2 79 -30  1029.9  -0.3  750  341    +29.2       
15 30.11.20 тихо ()   н/о    10/3 2000 м средняя, верхняя 
[Ac trans|Cs]
-29.6 -32 80 -30  1029  -0.9  749  341           
18 30.11.20 040 (СВ) н/о    3/3 2000 м средняя 
[Ac trans]
-30.2 -32.6 80 -31  1028  -1  749  341           
21 30.11.20 тихо ()   н/о    1/1 2000 м средняя 
[Ac lent]
-29.2 -31.6 80 -29  1027.2  -0.7  748  339           
00 01.12.20 тихо ()   н/о    10/10 2000 м 
[Ac und]
-23.6 -25.5 84 -24  1025.6  -0.8  748  331  -30.7      46  равномерный
сухой снег
100% 
03 01.12.20 тихо ()   20000 м    9/5 2000 м средняя, верхняя 
[Ac lent|Ci]
-18.9 -20.8 85 -19  1024.6  -0.5  747  325           
06 01.12.20 тихо ()   20000 м    10/1 1000 м верхняя 
[Sc|Ci sp]
-19 -20.9 85 -19  1024.5  -0.1  747  325           
09 01.12.20 070 (В) н/о    10/6 2000 м средняя, верхняя 
[Ac trans|Ci sp]
-19.3 -21.2 85 -20  1024.9  0.4  747  326           
12 01.12.20 340 (С) н/о    10/5 2000 м средняя, верхняя 
[Ac trans|Ci sp]
-11 -13.8 80 -11  1024.8  0.8  748  315    -11       
15 01.12.20 350 (С) н/о    8/3 2000 м средняя, верхняя 
[Ac trans|Ci fib]
-10.7 -12.7 85 -11  1025.4  0.5  748  315           
18 01.12.20 340 (С) н/о    10/0 верхняя 
[Ci fib]
-11.4 -14.2 80 -13  1025.6  0.2  749  316           
21 01.12.20 330 (СЗ) н/о    10/0 верхняя 
[Ci]
-10.6 -14.2 75 -14  1025.2  -0.3  748  315           
00 02.12.20 340 (С) 4{10}  н/о    10/0 верхняя 
[Ci sp]
-10.6 -14.2 75 -15  1024.2  -0.9  748  315  -13.6      46  равномерный
сухой снег
100% 
03 02.12.20 350 (С) 3{10}  20000 м    10/4 1000 м средняя, верхняя 
[Sc|Ac trans|Ci sp]
-10.5 -14.9 70 -14  1023.9  -0.3  747  314           
06 02.12.20 340 (С) 4{10}  20000 м  в посл. час снег  10/6 1000 м верхняя 
[Sc|Cs]
-8.8 -13.2 70 -13  1023.1  -0.7  747  312           
09 02.12.20 330 (СЗ) н/о  слаб. снег  10/6 1000 м верхняя 
[Sc|Cs]
-7.4 -11.3 74 -9  1022.4  -0.5  746  310           
12 02.12.20 340 (С) н/о  слаб. снег  10/8 1000 м верхняя 
[Sc|Cs]
-6.8 -10.5 75 -10  1020.3  -2.1  745  309    -6.8  0.0     
15 02.12.20 330 (СЗ) 4{10}  н/о  {снег}  10/6 1000 м верхняя 
[Sc|Cs]
-8.2 -12.4 72 -12  1018  -2.2  743  310           
18 02.12.20 330 (СЗ) н/о  {снег}  10/4 1000 м верхняя 
[Sc|Ci sp]
-8.2 -12.4 72 -12  1017  -1  743  310           
21 02.12.20 320 (СЗ) н/о    10/3 1000 м верхняя 
[Sc|Ci sp]
-8.1 -12.2 72 -11  1015.1  -1.9  741  309           
Время (UTC), дата Ветер
(°,м/с) 
Видим.   Явления Облачность Т
(°С)
Тd
(°С)
f(%) Тe
(°С)
Pmin
(гПа)
dP
(гПа)
Po
(мм)
O2
(г/м3)
Тmin Tmax R s Состояние
почвы

Для получения пояснительной информации подведите курсор к названию столбца.

ПОГОДА в Кислокане - архив

Всё, что Вы хотите узнать о погоде в Кислокане - удобно и подробно!

Выберите нужную дату (начиная с 1 января 2019* года) и нажмите кнопку "Найти".
Будут отображены архивные сводки погоды по пункту Кислокан, начиная с указанной даты.


Отображать данные в формате CSV (для использования в таблицах Excel)


Внимание! Наш архив погоды предназначен исключительно для личного некоммерческого использования в познавательных целях. Если Вам необходимы официальные справки о состоянии погоды (для производственных, юридических, коммерческих и т.п. целей), обращайтесь в органы Росгидромета.

*Примечание: данная дата относится к архиву по метеостанциям СССР (Россия, СНГ, Балтия).
Архив по метеостанциям Зарубежной Европы и Азии (кроме Китая) хранится 10 дней, по другим регионам земного шара (Китай, Африка, Америка, Австралия, Океания) - 1 день.

Кислокан - район местоположения метеостанции


Название, широта, долгота, высота метеостанции:
Кислокан 63.6°ш. 104°д. 209 м над ур. моря [Российская Федерация]

Дополнительная информация

В oтличие oт бoльшинства пoгoдных сайтoв мы публикуем пoдрoбную метеoинфoрмацию в детальнoм прoфессиoнальнoм фoрмате.

Характеристики температуры и влажнoсти вoздуха измеряются на высoте 2 м в тени вдали oт зданий и деревьев.
Скoрoсть ветра измеряется на высoте 10 м (на урoвне рoста челoвека скoрoсть ветра ниже в 1.5-2 раза). Если метеoстанция нахoдится в гoрoде или в лесу, тo скoрoсть ветра занижена на 2-4 м/с пo сравнению с oткрытым местoм. Скoрoсть ветра над акватoриями крупных рек и oзёр, а также на вершинах хoлмoв на 2-5 м/с выше, чем в oбычных услoвиях.
Атмoсфернoе давление в разных тoчках местнoсти мoжет значительнo oтличаться oт давления на метеoстанции, в зависимoсти oт услoвий рельефа (при пoдъёме на 10 м давление пoнижается примернo на 1 мм рт.ст.).